Location: Hepcat Sky Observatory
(29.9800°N, 95.6500°W)
Time: 14:54:52
(UTC-05:00)

Cosmos 2366 rocket - Visible Passes

Search period start: 03 May 2015 00:00
Search period end: 13 May 2015 00:00
Orbit: 954 x 998 km, 82.9° (Epoch: 01 May)

Date Brightness Start Highest point End Pass type
(mag) Time Alt. Az. Time Alt. Az. Time Alt. Az.
03 May 5.6 02:36:47 30° NE 02:36:47 30° NE 02:39:57 10° NNE visible
03 May 5.8 04:21:28 16° NW 04:21:28 16° NW 04:23:44 10° NNW visible
04 May 5.2 03:02:23 36° N 03:02:23 36° N 03:05:49 10° N visible
05 May 6.3 01:43:16 15° NE 01:43:16 15° NE 01:44:46 10° NE visible
05 May 5.4 03:27:58 28° NNW 03:27:58 28° NNW 03:31:10 10° N visible
06 May 5.8 02:08:51 25° NE 02:08:51 25° NE 02:11:29 10° NNE visible
06 May 5.8 03:53:31 18° NW 03:53:31 18° NW 03:55:49 10° NNW visible
07 May 5.5 02:34:24 32° N 02:34:24 32° N 02:37:29 10° N visible
08 May 6.5 01:15:16 12° NE 01:15:16 12° NE 01:15:59 10° NE visible
08 May 5.5 02:59:57 28° NNW 02:59:57 28° NNW 03:02:57 10° N visible
09 May 6.0 01:40:47 21° NE 01:40:47 21° NE 01:42:59 10° NNE visible
09 May 5.8 03:25:28 19° NW 03:25:28 19° NW 03:27:49 10° NNW visible
10 May 5.6 02:06:18 29° NNE 02:06:18 29° NNE 02:09:07 10° N visible
10 May 6.2 03:50:59 10° NW 03:50:59 10° NW 03:51:09 10° NW visible
11 May 5.5 02:31:48 29° NNW 02:31:48 29° NNW 02:34:43 10° N visible
12 May 6.1 01:12:37 18° NE 01:12:37 18° NE 01:14:27 10° NNE visible
12 May 5.8 02:57:18 21° NW 02:57:18 21° NW 02:59:44 10° NNW visible
